Regional Weather Roundup
Issued by NWS

Home | Current Version | Previous Version | Graphics & Text | Print | Product List | Glossary On
Versions: 1 2 3 4 5 6 7 8 9 10 11 12 13 14 15 16 17 18 19 20 21 22 23 24 25 26 27 28 29 30 31 32 33 34 35 36 37 38 39 40 41 42 43 44 45 46 47 48 49 50
000
ASUS45 KABQ 231810
RWRNM
NEW MEXICO REGIONAL WEATHER ROUNDUP
NATIONAL WEATHER SERVICE ALBUQUERQUE NM
1100 AM MST THU FEB 23 2017

NOTE: "FAIR" MEANS FEW OR NO CLOUDS BELOW 12,000 FEET AGL WITH NO
       SIGNIFICANT WEATHER OR OBSTRUCTIONS TO VISION.

      THIS PRODUCT IS RELEASED AS TWO VERSIONS.  ONE VERSION NEAR
      THE TOP OF THE HOUR CONTAINING PRELIMINARY DATA FROM ALBUQUERQUE
      AND OTHER STATIONS.  A FINAL VERSION WITH ADDITIONAL DATA IS
      ISSUED ABOUT 10 MINUTES AFTER THE HOUR.

NMZ501-503-504-510>518-231900-
NORTHWEST PLATEAU/NORTHCENTRAL MOUNTAINS

CITY           SKY/WX    TMP DP  RH WIND       PRES   REMARKS
FARMINGTON     FAIR      40   7  25 W18G30    29.74S WCI  31
6HR MIN TEMP:  34; 6HR MAX TEMP:  40; 6HR PCP: TRACE;

LOS ALAMOS     FAIR      39  10  30 SW22G29   29.70S WCI  28
SANTA FE       FAIR      45  16  31 W28G38    29.70R
6HR MIN TEMP:  38; 6HR MAX TEMP:  49;

TAOS             N/A     39  10  30 W36G45    29.66F WCI  26
ANGEL FIRE     LGT SNOW  27  19  70 W23G31    29.65R WCI  13

$$
NMZ402-403-502-505>509-231900-
WESTCENTRAL MOUNTAINS/SOUTHWEST MOUNTAINS

CITY           SKY/WX    TMP DP  RH WIND       PRES   REMARKS
GALLUP         FAIR      39  11  31 W23G32    29.80S WCI  28
6HR MIN TEMP:  31; 6HR MAX TEMP:  39;

GRANTS         FAIR      42  11  28 W21G44    29.78R
SILVER CITY    FAIR      54  28  37 W29       29.88R

$$
NMZ407-409-411-412-231900-
SOUTHERN DESERTS

CITY           SKY/WX    TMP DP  RH WIND       PRES   REMARKS
DEMING         FAIR      61  35  37 W16G31    29.85S
6HR MIN TEMP:  49; 6HR MAX TEMP:  62;

LAS CRUCES     FAIR      63  33  33 W31G41    29.81R
HOLLOMAN AFB   FAIR      67  27  22 SW24G35   29.80F
ALAMOGORDO     CLOUDY    66  27  22 W24G32    29.79F
T OR C         FAIR      62  17  17 SW23G30   29.75F
6HR MIN TEMP:  54; 6HR MAX TEMP:  62;


$$
NMZ519>523-231900-
CENTRAL VALLEYS/CENTRAL HIGHLANDS

CITY           SKY/WX    TMP DP  RH WIND       PRES   REMARKS
ALBUQUERQUE    FAIR      52  15  23 W21       29.74R
6HR MIN TEMP:  43; 6HR MAX TEMP:  52;

DOUBLE EAGLE   MOSUNNY   48  10  21 W32G40    29.74
MORIARTY ARPT  FAIR      53  15  22 W31G39    29.71S
6HR MIN TEMP:  33; 6HR MAX TEMP:  55;

CLINES CORNERS FAIR      48  15  26 W40G51    29.67S
6HR MIN TEMP:  38; 6HR MAX TEMP:  49;

BELEN          FAIR      56   8  14 W29G40    29.71S
6HR MIN TEMP:  45; 6HR MAX TEMP:  56;

SOCORRO        FAIR      65  -1   7 W16G32    29.69F
6HR MIN TEMP:  52; 6HR MAX TEMP:  65;


$$
NMZ524>526-539-540-231900-
SOUTHCENTRAL MOUNTAINS

CITY           SKY/WX    TMP DP  RH WIND       PRES   REMARKS
RUIDOSO        FAIR      54  19  26 SW31G46   29.76R

$$
NMZ527>531-231900-
NORTHEAST HIGHLANDS/NORTHEAST PLAINS

CITY           SKY/WX    TMP DP  RH WIND       PRES   REMARKS
RATON          FAIR      51  15  23 SW30G45   29.51S
6HR MIN TEMP:  30; 6HR MAX TEMP:  52;

CLAYTON        FAIR      64  14  14 SW35G53   29.46F
6HR MIN TEMP:  44; 6HR MAX TEMP:  64; 6HR PCP:  0.01;


$$
NMZ532>537-231900-
EASTCENTRAL PLAINS

CITY           SKY/WX    TMP DP  RH WIND       PRES   REMARKS
TUCUMCARI      FAIR      70  18  13 W39G52    29.52F
6HR MIN TEMP:  37; 6HR MAX TEMP:  71;

CANNON AFB     FAIR      70  19  14 W37G47    29.58F
6HR MIN TEMP:  43; 6HR MAX TEMP:  70;

CLOVIS AIRPORT FAIR      72  23  16 W37G48    29.59F

$$
NMZ028-029-538-231900-
SOUTHEAST PLAINS

CITY           SKY/WX    TMP DP  RH WIND       PRES   REMARKS
ROSWELL        FAIR      74  22  14 W38G54    29.57F
6HR MIN TEMP:  48; 6HR MAX TEMP:  75;

ARTESIA        FAIR      73  27  17 W35G46    29.65F
CARLSBAD       FAIR      76  28  17 W26G38    29.66F
6HR MIN TEMP:  63; 6HR MAX TEMP:  76; 6HR PCP: TRACE;

HOBBS          SUNNY     75  27  16 SW39G49   29.67F


$$



USA.gov is the U.S. government's official web portal to all federal, state and local government web resources and services.